Other Surface Observations
Issued by NWS Tucson, AZ

Home | Current Version | Previous Version | Text Only | Print | Product List | Glossary On
Versions: 1 2 3 4 5 6 7 8 9 10 11 12 13 14 15 16 17 18 19 20 21 22 23 24 25 26 27 28 29 30 31 32 33 34 35 36 37 38 39 40 41 42 43 44 45 46 47 48 49 50
492
SXUS55 KTWC 251215
OSOTWC

WEATHER ROUNDUP FOR SOUTHEAST ARIZONA
NATIONAL WEATHER SERVICE TUCSON AZ
515 AM MST SUN SEP 25 2016

AZZ504>506-514-251315-
LOCATION       SKY/WX    TMP DP  RH WIND       PRES   REMARKS
TUCSON         CLEAR     58  30  34 SE7       30.04S
DAVIS-MONTHAN  CLEAR     55  31  39 SE6       30.03R
CHILDRENS PARK N/A      N/A N/A  41 E3                PIMA CO DEQ
ALVERNON/22ND  N/A      N/A N/A N/A N/A               PIMA CO DEQ
CHERRY/GLENN   N/A       58 N/A N/A SE2               PIMA CO DEQ
TANGERINE      N/A       59 N/A N/A E3                PIMA CO DEQ
CONTL RANCH    N/A       60  33  36 SE4               PIMA CO DEQ
GRANT/1ST      N/A       59  31  34 SE0               PIMA CO DEQ
CRAYCROFT/22ND N/A       59  31  34 SW3               PIMA CO DEQ
GOLFLINKS/KOLB N/A       59  30  33 SE6               PIMA CO DEQ
AJO/12TH       N/A       56  34  43 S6                PIMA CO DEQ
FAIRGROUNDS    N/A       56 N/A N/A E10               PIMA CO DEQ
SAGUARO        N/A       55  32  42 NW2               *SABINO CYN
SAN CARLOS     N/A       67  32  27 S2                *SAN CARLOS
GREEN VALLEY   N/A       52  32  47 S7                PIMA CO DEQ
HORSE CAMP CYN N/A       63  31  30 NE12G21           *ARAVAIPA CYN
RINCON MTNS    N/A       50  21  31 NE5G11            *NR MANNING CAMP
$$

AZZ509>511-251315-
LOCATION       SKY/WX    TMP DP  RH WIND       PRES   REMARKS
SAFFORD          N/A     54  50  87 MISG      30.06R
STRAY HORSE    N/A       47  26  44 NE9G17            *
TRAIL CABIN    N/A       53  31  43 E6G10             *N OF GRANVILLE
BLACK HILLS    NOT AVBL
DRY LAKE       N/A       46  27  48 NE4G10            *NATANES MTNS
NOON CREEK     N/A       58  29  33 SW8               *PINALENO MTNS
COLUMBINE      N/A       35  26  69 CALM              *PINALENO MTNS
GUTHRIE        N/A       55  27  34 NE17G31           *SW OF GUTHRIE
$$

AZZ502-503-513-251315-
LOCATION       SKY/WX    TMP DP  RH WIND       PRES   REMARKS
NOGALES        PTCLDY    50  32  50 NE5       30.08S
SELLS          N/A       61  31  32 E4                *
SASABE         N/A       44  30  57 SW4               *ALTAR VLY
HOPKINS        N/A       55  20  25 NE6G17            *SANTA RITA MTNS
CARR CYN       N/A       56  28  34 SW3               *W OF HEREFORD
$$

AZZ507-508-512-251315-
LOCATION       SKY/WX    TMP DP  RH WIND       PRES   REMARKS
SIERRA VISTA   PTCLDY    58  27  30 SE3       30.13S
DOUGLAS        PTCLDY    54  34  46 N8        30.10R
EMPIRE MTNS    NOT AVBL
MULESHOE RANCH N/A       49  28  44 CALM              *PRESERVE
HEADQUARTERS   NOT AVBL
$$

.............................NOTES.............................
THIS IS AN AUTOMATED COLLECTIVE WITH MINIMAL QUALITY CONTROL.
PIMA CO DEQ SITES HAVE NONSTANDARD WIND SENSOR HEIGHTS.
PIMA CO DEQ SITES DO NOT REPORT WIND GUSTS.
* INDICATES WIND SENSORS LOCATED AT 20 FEET INSTEAD OF 33 FEET.
..............................KEY..............................
SKY/WX - SKY CONDITION/WEATHER
TMP    - TEMPERATURE IN FAHRENHEIT
DP     - DEWPOINT IN FAHRENHEIT
RH     - RELATIVE HUMIDITY IN PERCENT
WIND   - DIRECTION AND SPEED IN MILES PER HOUR (MPH)
VRB    - VARIABLE WIND DIRECTION
PRES   - MEAN SEA LEVEL PRESSURE IN INCHES OF MERCURY
         F - FALLING PRESSURE   R - RISING PRESSURE
         S - STEADY PRESSURE
VSB    - VISIBILITY IN MILES
HX     - HEAT INDEX IN FAHRENHEIT
WCI    - WIND CHILL INDEX IN FAHRENHEIT
N/A    - NOT AVAILABLE
AFB    - AIR FORCE BASE
         DAVIS-MONTHAN IS DAVIS-MONTHAN AIR FORCE BASE
CYN    - CANYON
MTNS   - MOUNTAINS
NCA    - NATIONAL CONSERVATION AREA
NR     - NEAR
VLY    - VALLEY
CONTL  - CONTINENTAL
PIMA CO DEQ - PIMA COUNTY DEPT OF ENVIRONMENTAL QUALITY



USA.gov is the U.S. government's official web portal to all federal, state and local government web resources and services.